Location: Knowlton
(51.2333°N, 1.2667°E)
Time: 09:25:46
(UTC+00:00)

BREEZE-M DEB (TANK) - Pass Details

Date: 18 April 2021
Orbit: 289 x 13026 km, 49.6° (Epoch: 05 May)

Event Time Altitude Azimuth Distance (km) Brightness Sun altitude
Rises 20:32:41 0° 253° (WSW) 2,708 6.4 -14.0°
Reaches altitude 10° 20:34:04 10° 251° (WSW) 2,113 5.7 -14.1°
Maximum altitude 20:38:29 76° 166° (SSE) 1,267 3.9 -14.7°
Drops below altitude 10° 20:55:32 10° 85° (E) 7,456 7.6 -16.6°
Sets 21:06:13 0° 86° (E) 10,766 8.5 -17.8°
